When you browse on this site, cookies collect data to enhance your experience and personalize the content and advertising you see.
Visit our Privacy Policy to learn more. By continuing to use the site, you agree to this use of cookies and data.
  • In Hungary
  • List of Countries
  • For 7 days
  • Water Temperature
  • Weather Map
  • News
  • Weather Widgets
  • user-avatar
    Login

    Hourly Weather Eremeevo

    Today, 19 September, Thursday

    Time Temperature Precipitation Wind Pressure Humidity
    00:00 +4°C° 0 mm 3 mps 738 mmHg 96%
    01:00 +5°C° 0 mm 3 mps 738 mmHg 94%
    02:00 +5°C° 0 mm 3 mps 739 mmHg 93%
    03:00 +5°C° 0 mm 3 mps 739 mmHg 93%
    04:00 +5°C° 0 mm 4 mps 740 mmHg 92%
    05:00 +4°C° 0 mm 4 mps 740 mmHg 92%
    06:00 +4°C° 0 mm 4 mps 741 mmHg 91%
    07:00 +4°C° 0 mm 4 mps 741 mmHg 90%
    08:00 +4°C° 0 mm 4 mps 742 mmHg 88%
    09:00 +5°C° 0 mm 4 mps 742 mmHg 83%
    10:00 +5°C° 0 mm 4 mps 743 mmHg 77%
    11:00 +6°C° 0 mm 4 mps 743 mmHg 72%
    12:00 +7°C° 0 mm 3 mps 744 mmHg 67%
    13:00 +8°C° 0 mm 3 mps 744 mmHg 62%
    14:00 +8°C° 0 mm 3 mps 744 mmHg 58%
    15:00 +7°C° 0 mm 2 mps 745 mmHg 61%
    16:00 +7°C° 0 mm 2 mps 745 mmHg 65%
    17:00 +7°C° 0 mm 1 mps 745 mmHg 68%
    18:00 +6°C° 0 mm 1 mps 745 mmHg 71%
    19:00 +6°C° 0 mm 1 mps 746 mmHg 74%
    20:00 +5°C° 0 mm 1 mps 746 mmHg 77%
    21:00 +4°C° 0 mm 1 mps 746 mmHg 79%
    22:00 +4°C° 0 mm 1 mps 746 mmHg 81%
    23:00 +4°C° 0 mm 1 mps 746 mmHg 82%

    Tomorrow, 20 September, Friday

    Time Temperature Precipitation Wind Pressure Humidity
    00:00 +4°C° 0 mm 1 mps 746 mmHg 83%
    01:00 +4°C° 0 mm 1 mps 746 mmHg 84%
    02:00 +4°C° 0 mm 1 mps 747 mmHg 84%
    03:00 +3°C° 0 mm 1 mps 746 mmHg 85%
    04:00 +3°C° 0 mm 1 mps 746 mmHg 86%
    05:00 +3°C° 0 mm 1 mps 746 mmHg 87%
    06:00 +4°C° 0 mm 1 mps 746 mmHg 83%
    07:00 +5°C° 0 mm 1 mps 746 mmHg 78%
    08:00 +6°C° 0 mm 1 mps 746 mmHg 74%
    09:00 +7°C° 0 mm 1 mps 746 mmHg 68%
    10:00 +8°C° 0 mm 1 mps 746 mmHg 63%
    11:00 +8°C° 0 mm 2 mps 746 mmHg 58%
    12:00 +9°C° 0.1 mm 2 mps 746 mmHg 56%
    13:00 +9°C° 0.1 mm 2 mps 746 mmHg 55%
    14:00 +9°C° 0.1 mm 2 mps 746 mmHg 54%
    15:00 +8°C° 0.2 mm 2 mps 746 mmHg 62%
    16:00 +7°C° 0.2 mm 2 mps 745 mmHg 69%
    17:00 +6°C° 0.2 mm 2 mps 745 mmHg 77%
    18:00 +6°C° 0.1 mm 2 mps 746 mmHg 82%
    19:00 +5°C° 0.1 mm 2 mps 746 mmHg 87%
    20:00 +4°C° 0.1 mm 2 mps 746 mmHg 92%
    21:00 +3°C° 0 mm 2 mps 746 mmHg 93%
    22:00 +2°C° 0 mm 2 mps 746 mmHg 95%
    23:00 +1°C° 0 mm 2 mps 746 mmHg 97%

    Day after tomorrow, 21 September, Saturday

    Time Temperature Precipitation Wind Pressure Humidity
    00:00 +1°C° 0 mm 2 mps 747 mmHg 97%
    01:00 +1°C° 0 mm 2 mps 747 mmHg 97%
    02:00 -1°C° 0 mm 2 mps 747 mmHg 97%
    03:00 -1°C° 0 mm 2 mps 747 mmHg 96%
    04:00 -1°C° 0 mm 2 mps 747 mmHg 96%
    05:00 -2°C° 0 mm 2 mps 747 mmHg 95%
    06:00 +1°C° 0 mm 2 mps 747 mmHg 90%
    07:00 +2°C° 0 mm 2 mps 747 mmHg 84%
    08:00 +3°C° 0 mm 2 mps 747 mmHg 79%
    09:00 +5°C° 0 mm 2 mps 746 mmHg 73%
    10:00 +5°C° 0 mm 3 mps 746 mmHg 67%
    11:00 +7°C° 0 mm 3 mps 746 mmHg 61%
    12:00 +7°C° 0 mm 3 mps 745 mmHg 59%
    13:00 +8°C° 0 mm 3 mps 745 mmHg 58%
    14:00 +7°C° 0 mm 4 mps 744 mmHg 56%
    15:00 +6°C° 0 mm 4 mps 744 mmHg 64%
    16:00 +5°C° 0 mm 3 mps 743 mmHg 73%
    17:00 +4°C° 0 mm 3 mps 742 mmHg 81%
    18:00 +4°C° 0.1 mm 3 mps 742 mmHg 84%
    19:00 +4°C° 0.1 mm 4 mps 741 mmHg 87%
    20:00 +3°C° 0.1 mm 4 mps 740 mmHg 91%
    21:00 +3°C° 0.2 mm 4 mps 739 mmHg 91%
    22:00 +4°C° 0.2 mm 4 mps 737 mmHg 92%
    23:00 +4°C° 0.2 mm 4 mps 736 mmHg 93%

    22 September, Sunday

    Time Temperature Precipitation Wind Pressure Humidity
    00:00 +4°C° 1.1 mm 4 mps 734 mmHg 94%
    01:00 +4°C° 1.1 mm 4 mps 733 mmHg 96%
    02:00 +4°C° 1.1 mm 4 mps 731 mmHg 97%
    03:00 +4°C° 1.8 mm 4 mps 730 mmHg 96%
    04:00 +4°C° 1.8 mm 4 mps 730 mmHg 96%
    05:00 +4°C° 1.8 mm 4 mps 729 mmHg 95%
    06:00 +3°C° 1.4 mm 6 mps 730 mmHg 95%
    07:00 +2°C° 1.4 mm 7 mps 731 mmHg 95%
    08:00 +1°C° 1.4 mm 9 mps 732 mmHg 95%
    09:00 +1°C° 0.6 mm 9 mps 734 mmHg 95%
    10:00 0°C° 0.6 mm 9 mps 736 mmHg 94%
    11:00 0°C° 0.6 mm 9 mps 737 mmHg 93%
    12:00 0°C° 0.1 mm 9 mps 739 mmHg 91%
    13:00 +1°C° 0.1 mm 8 mps 740 mmHg 89%
    14:00 +1°C° 0.1 mm 8 mps 742 mmHg 87%
    15:00 +2°C° 0.1 mm 7 mps 743 mmHg 86%
    16:00 +2°C° 0.1 mm 6 mps 743 mmHg 84%
    17:00 +3°C° 0.1 mm 4 mps 744 mmHg 82%
    18:00 +1°C° 0 mm 4 mps 745 mmHg 85%
    19:00 0°C° 0 mm 4 mps 745 mmHg 88%
    20:00 0°C° 0 mm 3 mps 745 mmHg 91%
    21:00 0°C° 0 mm 3 mps 746 mmHg 91%
    22:00 -1°C° 0 mm 4 mps 746 mmHg 91%
    23:00 -1°C° 0 mm 4 mps 746 mmHg 92%

    23 September, Monday

    Time Temperature Precipitation Wind Pressure Humidity
    00:00 -2°C° 0 mm 4 mps 747 mmHg 93%
    01:00 -2°C° 0 mm 4 mps 747 mmHg 94%
    02:00 -3°C° 0 mm 4 mps 747 mmHg 95%
    03:00 -2°C° 0 mm 4 mps 747 mmHg 94%
    04:00 -2°C° 0 mm 4 mps 748 mmHg 93%
    05:00 -1°C° 0 mm 3 mps 748 mmHg 93%
    06:00 -1°C° 0 mm 3 mps 748 mmHg 90%
    07:00 0°C° 0 mm 3 mps 748 mmHg 87%
    08:00 +1°C° 0 mm 3 mps 748 mmHg 84%
    09:00 +2°C° 0 mm 3 mps 749 mmHg 77%
    10:00 +3°C° 0 mm 4 mps 749 mmHg 70%
    11:00 +5°C° 0 mm 4 mps 749 mmHg 63%
    12:00 +5°C° 0.1 mm 4 mps 748 mmHg 63%
    13:00 +5°C° 0.1 mm 4 mps 748 mmHg 62%
    14:00 +6°C° 0.1 mm 4 mps 748 mmHg 62%
    15:00 +5°C° 0.1 mm 4 mps 747 mmHg 68%
    16:00 +4°C° 0.1 mm 3 mps 747 mmHg 74%
    17:00 +4°C° 0.1 mm 2 mps 747 mmHg 80%
    18:00 +3°C° 0 mm 2 mps 747 mmHg 84%
    19:00 +2°C° 0 mm 2 mps 747 mmHg 88%
    20:00 +1°C° 0 mm 2 mps 747 mmHg 92%
    21:00 +1°C° 0 mm 2 mps 747 mmHg 93%
    22:00 -1°C° 0 mm 2 mps 747 mmHg 94%
    23:00 -1°C° 0 mm 2 mps 747 mmHg 94%

    24 September, Tuesday

    Time Temperature Precipitation Wind Pressure Humidity
    00:00 -1°C° 0 mm 2 mps 746 mmHg 95%
    01:00 -2°C° 0 mm 2 mps 746 mmHg 95%
    02:00 -2°C° 0 mm 2 mps 746 mmHg 96%
    03:00 -2°C° 0 mm 2 mps 746 mmHg 96%
    04:00 0°C° 0 mm 1 mps 746 mmHg 96%
    05:00 0°C° 0 mm 1 mps 746 mmHg 96%
    06:00 +1°C° 0 mm 1 mps 745 mmHg 91%
    07:00 +2°C° 0 mm 1 mps 745 mmHg 86%
    08:00 +4°C° 0 mm 1 mps 745 mmHg 81%
    09:00 +5°C° 0 mm 1 mps 745 mmHg 74%
    10:00 +6°C° 0 mm 0 mps 745 mmHg 67%
    11:00 +7°C° 0 mm 0 mps 745 mmHg 60%
    12:00 +7°C° 0 mm 0 mps 745 mmHg 58%
    13:00 +7°C° 0 mm 0 mps 745 mmHg 56%
    14:00 +8°C° 0 mm 0 mps 744 mmHg 54%
    15:00 +8°C° 0 mm 1 mps 744 mmHg 58%
    16:00 +7°C° 0 mm 1 mps 744 mmHg 63%
    17:00 +6°C° 0 mm 1 mps 744 mmHg 67%
    18:00 +5°C° 0 mm 1 mps 745 mmHg 68%
    19:00 +4°C° 0 mm 1 mps 745 mmHg 69%
    20:00 +4°C° 0 mm 1 mps 745 mmHg 71%
    21:00 +4°C° 0 mm 1 mps 745 mmHg 72%
    22:00 +4°C° 0 mm 1 mps 745 mmHg 73%
    23:00 +3°C° 0 mm 1 mps 745 mmHg 74%
    Show more